IRIDIUM 95 [-] (27375 NORAD) Tracking and Keplerian Element Data

This shows tracking and keplerian element data for the satellite.

Feedback or suggestion? Click here.




ElementValue
Catalog27375
NameIRIDIUM 95 [-]
Epoch Orbit90378
Epoch Day84.73540002
Epoch Year2019
RAAN15.763
Inclination86.6002
Eccentricity0.0050669
Argument of Perigee113.4157
Mean Anonmoly247.2494
Mean Motion16.46327734
Decay Rate0.20309122
L11 27375U 02005D 19084.73540002 .20309122 -18465-5 18100-3 0 9996
L22 27375 86.6002 15.7630 0050669 113.4157 247.2494 16.46327734903780



Live tracking and technical data element details for IRIDIUM 95 [-] (NORAD 27375). IRIDIUM 95 [-] can be tracked NOW for your location showing map with azimuth and elevation plus other details from your city location.







IsCatalogInMostPopularTable: catalog: 27375, numindb: 524
Update: records affected: 1



GetName: 27375 IRIDIUM 95 [-]

Hit Count: updated at: Thu, 15 May 2025 10:20:10 GMT